Kailua-Kona, HI

1:38 AM HST on September 05, 2015 (GMT -1000)
Kona Hills | | Change Station
CLOSE
Current Station
Personal Weather Station
Location: Kailua-Kona, HI
Elevation: 1188 ft
Nearby Weather Stations
Active Advisory: High Surf Advisory Active Notice: Record Report

Elev 1188 ft 19.71 °N, 155.99 °W | Updated 13 seconds ago

Scattered Clouds
Scattered Clouds
72.7 °F
Feels Like 71 °F
N
0.9
Wind Variable Wind from ESE
Gusts 2.5 mph

Today
High -- | Low -- °F
--% Chance of Precip.
Yesterday
High -- | Low -- °F
Precip. -- in
6:09 AM 6:35 PM
Waning Gibbous, 49% visible
Pressure 29.83 in
Visibility 10.0 miles
Clouds Scattered Clouds 4100 ft
Heat Index 71 °F
Dew Point 69 °F
Humidity 88%
Rainfall 0.00 in
Snow Depth Not available.
UV 0.0 out of 12
Pollen Not available.
Air Quality Not available.
Flu Activity Not available.
METAR PHKO 051053Z AUTO 11005KT 10SM SCT041 27/23 A2982 RMK AO2 SLP099 T02720228 TSNO
Pressure 29.83 in
Visibility 10.0 miles
Clouds Scattered Clouds 4100 ft
Heat Index 71 °F
Dew Point 69 °F
Humidity 88%
Rainfall 0.00 in
Snow Depth Not available.
UV 0.0 out of 12
Pollen Not available.
Air Quality Not available.
Flu Activity Not available.
METAR PHKO 051053Z AUTO 11005KT 10SM SCT041 27/23 A2982 RMK AO2 SLP099 T02720228 TSNO

10-Day Weather Forecast

×

Almanac

Astronomy

Sep. 05, 2015 Rise Set
Actual Time
Civil Twilight
Nautical Twilight
Astronomical Twilight
Moon
Length of Visible Light
Length of Day
Tomorrow will be .
, % of the Moon is Illuminated

Today's Extremes

State Highs State Lows

Community

WunderPhotos

Upload Photos

1,852,449 photos uploaded!

WunderBlogs® & News

Nearby

Air Quality

  Air Quality AQ Index Pollutant
Not available.

Snow Depth

Station Depth Elevation

Earthquake Activity

City Distance Mag. Time & Date
Minimum magnitude displayed is 2.5.

Coastal Water Temperatures

Place Temperature

Stations

Nearby Weather Stations

Station Location Temp. Windchill Dew Point Humidity Wind Precip. Elev Updated Type
                   
High Surf Advisory
Statement as of 4:07 PM HST on September 04, 2015

... High surf advisory remains in effect until 6 PM HST Saturday...

A high surf advisory remains in effect until 6 PM HST Saturday.

* Surf... along south facing shores... 6 to 8 feet through
tonight... rising to 7 to 10 feet Saturday.

* Timing... through Saturday 6 PM HST.

* Impacts... moderate... expect strong breaking waves... shore
break... and strong longshore and rip currents making swimming
difficult and dangerous.

Precautionary/preparedness actions...

Beachgoers... swimmers... and surfers should heed all advice given
by ocean safety officials and exercise caution. Boaters should
expect recreational surfers and body boarders utilizing Harbor
channels to access surfing areas.